[[{"header":{"parameterUnit":"m.s-1","parameterCategory":1,"la1":30.2991,"la2":30.254,"lo1":-89.0895,"lo2":-89.0444,"dy":0.0017,"dx":0.0017,"nx":28,"ny":28,"refTime":"2025-09-06T21:00:00:Z","depth":0,"parameterNumber":2,"parameterNumberName":"U-component_of_WINDS"},"data":[0,0,0,0,0,0,0,0,0,0,0,0,0,0,0,0,0,0,0,0,0,0,0,0,0,0,0,0,0,0,0,0,0,0,0,0,0,0,0,0,0,0,0,0,0,0,0,0,0,0,0,0,0,0,0,0,0,0,-2.4582,-2.4582,0,-2.4646,-2.4646,-2.4647,-2.4575,-2.4573,-2.457,-2.4567,-2.4634,-2.4638,-2.4642,0,0,0,0,0,0,0,0,0,0,0,0,0,-2.4397,-2.4401,-2.4581,-2.4582,-2.4583,-2.4645,-2.4646,-2.4647,-2.4576,-2.4573,-2.4569,-2.4566,-2.4632,-2.4637,-2.4643,0,0,0,0,0,0,0,0,0,0,0,0,0,-2.4471,-2.4402,-2.4581,-2.4555,-2.4553,-2.4645,-2.4646,-2.4647,-2.4577,-2.4573,-2.4568,-2.4565,-2.4631,-2.4637,-2.4643,-2.4765,0,0,-2.4663,-2.4666,0,0,0,0,0,0,0,0,-2.4467,-2.4478,-2.4558,-2.4557,-2.4555,-2.4598,-2.4605,-2.4687,-2.4578,-2.4568,-2.4567,-2.4563,-2.4625,-2.4632,-2.4653,-2.4768,-2.4771,-2.4664,-2.4668,-2.467,-2.4672,0,0,0,0,0,0,0,-2.4462,-2.4474,-2.4607,-2.4559,-2.4558,-2.454,-2.4546,-2.4621,-2.4619,-2.4568,-2.4563,-2.4572,-2.4624,-2.4647,-2.4654,-2.4771,-2.4663,-2.4669,-2.4673,-2.4676,-2.4988,-2.4992,0,0,0,0,0,0,-2.4459,-2.4471,-2.4605,-2.4609,-2.45,-2.4546,-2.4553,-2.4589,-2.4618,-2.4618,-2.4575,-2.4568,-2.4638,-2.4647,-2.4656,-2.48,-2.467,-2.4676,-2.468,-2.4984,-2.4989,-2.4994,0,0,0,0,0,0,-2.4456,-2.4472,-2.4602,-2.4538,-2.4553,-2.4554,-2.4594,-2.4592,-2.4615,-2.4623,-2.4622,-2.4599,-2.4635,-2.4647,-2.4738,-2.4802,-2.4679,-2.4685,-2.4978,-2.4985,-2.4991,-2.509,0,0,0,0,0,0,-2.4451,-2.4471,-2.4518,-2.454,-2.4557,-2.4684,-2.4598,-2.4596,-2.4626,-2.4618,-2.4645,-2.4646,-2.4633,-2.4729,-2.4744,-2.4808,-2.469,-2.4973,-2.4981,-2.4989,-2.5081,-2.5099,-2.5114,0,0,0,0,0,-2.4444,-2.4543,-2.452,-2.4537,-2.4615,-2.4688,-2.4697,-2.468,-2.4632,-2.4678,-2.4683,-2.4645,-2.4791,-2.4739,-2.4756,-2.4822,-2.4969,-2.4979,-2.4989,-2.5073,-2.5095,-2.5114,0,0,0,0,0,0,-2.4529,-2.4546,-2.4521,-2.4629,-2.4658,-2.4675,-2.4734,-2.4704,-2.4747,-2.4737,-2.4714,-2.472,-2.4817,-2.4828,-2.4769,-2.4941,-2.4872,-2.4886,-2.4931,-2.4952,-2.4968,-2.4964,-2.4695,0,0,0,0,0,-2.456,-2.4618,-2.4629,-2.4724,-2.4739,-2.4734,-2.4765,-2.4749,-2.4777,-2.4789,-2.48,-2.4829,-2.4881,-2.4917,-2.4965,-2.5081,-2.5086,-2.5135,-2.5152,-2.5165,-2.5179,-2.5241,-2.5263,-2.5027,-2.5027,-2.5026,0,0,-2.4626,-2.4642,-2.468,-2.4741,-2.4761,-2.4821,-2.4745,-2.4811,-2.4856,-2.4799,-2.4886,-2.4895,-2.4925,-2.5029,-2.5076,-2.5042,-2.5244,-2.5178,-2.5189,-2.5195,-2.5253,-2.5275,-2.5295,-2.5033,-2.5032,-2.5031,0,0,-2.4776,-2.4793,-2.4875,-2.4896,-2.4926,-2.4922,-2.4941,-2.4963,-2.4967,-2.5054,-2.5012,-2.5064,-2.5155,-2.5178,-2.5202,-2.5359,-2.5326,-2.5375,-2.5464,-2.5524,-2.5543,-2.556,-2.5617,-2.5637,-2.5387,-2.5388,-2.5388,0,-2.4854,-2.4943,-2.492,-2.499,-2.5018,-2.4968,-2.505,-2.5071,-2.5117,-2.5137,-2.5098,-2.521,-2.5227,-2.5336,-2.5374,-2.5395,-2.5416,-2.5373,-2.5542,-2.5558,-2.5573,-2.5627,-2.5649,-2.5394,-2.5393,-2.5392,-2.5392,0,-2.5037,-2.5099,-2.5161,-2.5205,-2.524,-2.5316,-2.5304,-2.5342,-2.5322,-2.5322,-2.541,-2.5428,-2.548,-2.5503,-2.5485,-2.561,-2.5588,-2.5546,-2.5477,-2.5602,-2.5653,-2.5673,-2.5402,-2.54,-2.5398,-2.5397,0,0,-2.5246,-2.5275,-2.5299,-2.5318,-2.5347,-2.5395,-2.5467,-2.5516,-2.555,-2.5581,-2.5642,-2.5719,-2.568,-2.5707,-2.569,-2.5743,-2.5867,-2.5694,-2.5695,-2.5727,-2.6006,-2.6039,-2.6064,-2.5844,-2.5848,-2.5851,-2.6004,0,-2.5398,-2.5524,-2.5505,-2.5627,-2.5684,-2.5636,-2.5699,-2.5723,-2.5724,-2.5772,-2.5773,-2.5828,-2.5772,-2.5788,-2.5838,-2.5842,-2.5923,-2.583,-2.5901,-2.5904,-2.5897,-2.609,-2.6125,-2.627,-2.6023,-2.6027,-2.6029,0,-2.5593,-2.5632,-2.5759,-2.5779,-2.5802,-2.5859,-2.5902,-2.5949,-2.5975,-2.5972,-2.6001,-2.5974,-2.6046,-2.5974,-2.6073,-2.601,-2.6037,-2.6043,-2.6048,-2.6056,-2.5976,-2.6105,-2.6315,-2.6337,-2.606,-2.6057,-2.6055,0,-2.5734,-2.5818,-2.5905,-2.5923,-2.5947,-2.5989,-2.6001,-2.6023,-2.6053,-2.6091,-2.6111,-2.6156,-2.6182,-2.6217,-2.6203,-2.6151,-2.6305,-2.6231,-2.6305,-2.6306,-2.6342,-2.634,-2.6562,-2.6356,-2.6356,-2.6355,-2.6355,0,-2.5907,-2.5988,-2.5969,-2.6023,-2.6111,-2.6087,-2.6175,-2.6181,-2.6201,-2.6255,-2.6215,-2.6266,-2.6243,-2.6293,-2.6282,-2.6366,-2.6377,-2.6377,-2.6373,-2.6382,-2.6382,-2.6401,-2.6392,-2.6361,-2.636,-2.6359,-2.6358,0,-2.6082,-2.6072,-2.6164,-2.6179,-2.6184,-2.6249,-2.6261,-2.6312,-2.6308,-2.6377,-2.6391,-2.6387,-2.6443,-2.6431,-2.6493,-2.6485,-2.6591,-2.6574,-2.6583,-2.658,-2.6655,-2.6649,-2.6898,-2.693,-2.6702,-2.6704,-2.6706,0,-2.6194,-2.6255,-2.6276,-2.6309,-2.6324,-2.6378,-2.6409,-2.6386,-2.642,-2.6454,-2.65,-2.6552,-2.6594,-2.6685,-2.6687,-2.6734,-2.6719,-2.6803,-2.6726,-2.6733,-2.6723,-2.672,-2.6726,-2.682,-2.6822,-2.6824,-2.6826,0,-2.6396,-2.6387,-2.6433,-2.6478,-2.6516,-2.6549,-2.6579,-2.6609,-2.6589,-2.6628,-2.6685,-2.6717,-2.6779,-2.6832,-2.6875,-2.6887,-2.6854,-2.6849,-2.6869,-2.688,-2.6883,-2.6884,-2.6627,-2.6845,-2.6843,-2.6841,-2.684,-2.684,-2.6544,-2.6595,-2.6618,-2.667,-2.669,-2.6718,-2.6766,-2.6768,-2.6815,-2.6865,-2.6848,-2.6913,-2.6936,-2.699,-2.7007,-2.7057,-2.7025,-2.7054,-2.7062,-2.707,-2.708,-2.6873,-2.7064,-2.7064,-2.7063,-2.7063,-2.7062,0,-2.6744,-2.6756,-2.6804,-2.6847,-2.6888,-2.6851,-2.6882,-2.6919,-2.6976,-2.7,-2.7041,-2.7106,-2.7156,-2.7161,-2.7209,-2.7248,-2.7234,-2.7261,-2.7259,-2.7263,-2.7104,-2.7083,-2.7272,-2.7272,-2.7272,-2.7272,-2.7272,-2.7272,-2.6854,-2.6939,-2.6933,-2.7028,-2.7038,-2.7102,-2.7122,-2.7148,-2.7167,-2.7241,-2.7283,-2.7285,-2.7302,-2.7349,-2.7394,-2.7394,-2.7414,-2.7448,-2.7442,-2.7295,-2.7274,-2.7254,-2.7234,-2.7452,-2.7452,-2.7597,-2.7598,-2.7599]},{"header":{"parameterUnit":"m.s-1","parameterCategory":1,"la1":30.2991,"la2":30.254,"lo1":-89.0895,"lo2":-89.0444,"dy":0.0017,"dx":0.0017,"nx":28,"ny":28,"refTime":"2025-09-06T21:00:00:Z","depth":0,"parameterNumber":3,"parameterNumberName":"V-component_of_WINDS"},"data":[0,0,0,0,0,0,0,0,0,0,0,0,0,0,0,0,0,0,0,0,0,0,0,0,0,0,0,0,0,0,0,0,0,0,0,0,0,0,0,0,0,0,0,0,0,0,0,0,0,0,0,0,0,0,0,0,0,0,-6.3644,-6.3645,0,-6.3718,-6.3719,-6.372,-6.3623,-6.3619,-6.3616,-6.3612,-6.3684,-6.3689,-6.3694,0,0,0,0,0,0,0,0,0,0,0,0,0,-6.341,-6.3415,-6.3644,-6.3645,-6.3646,-6.3718,-6.3719,-6.372,-6.3623,-6.3619,-6.3615,-6.3611,-6.3682,-6.3688,-6.3694,0,0,0,0,0,0,0,0,0,0,0,0,0,-6.3501,-6.3417,-6.3643,-6.3606,-6.3603,-6.3718,-6.3719,-6.3721,-6.3624,-6.3619,-6.3614,-6.3609,-6.368,-6.3687,-6.3695,-6.3849,0,0,-6.3719,-6.3722,0,0,0,0,0,0,0,0,-6.3496,-6.351,-6.3611,-6.3609,-6.3606,-6.3656,-6.3663,-6.3763,-6.3625,-6.3616,-6.3612,-6.3606,-6.3678,-6.3686,-6.3711,-6.3852,-6.3855,-6.3719,-6.3724,-6.3727,-6.373,0,0,0,0,0,0,0,-6.349,-6.3506,-6.3673,-6.3612,-6.3609,-6.3583,-6.359,-6.3682,-6.3676,-6.3616,-6.361,-6.362,-6.3676,-6.3704,-6.3712,-6.3856,-6.3719,-6.3726,-6.3731,-6.3734,-6.4124,-6.413,0,0,0,0,0,0,-6.3489,-6.3501,-6.3671,-6.3675,-6.3537,-6.3592,-6.36,-6.3645,-6.3674,-6.3674,-6.3625,-6.3615,-6.3693,-6.3703,-6.3714,-6.3895,-6.3727,-6.3735,-6.3739,-6.4119,-6.4126,-6.4132,0,0,0,0,0,0,-6.3484,-6.3505,-6.3668,-6.3586,-6.3605,-6.3601,-6.3653,-6.3649,-6.3677,-6.3681,-6.3678,-6.3655,-6.369,-6.3703,-6.3816,-6.3896,-6.3738,-6.3745,-6.4112,-6.4121,-6.4129,-6.4259,0,0,0,0,0,0,-6.3478,-6.3504,-6.3564,-6.3589,-6.361,-6.377,-6.3658,-6.3655,-6.3692,-6.368,-6.3708,-6.3708,-6.3687,-6.3805,-6.3824,-6.3904,-6.3751,-6.4105,-6.4116,-6.4126,-6.4247,-6.4271,-6.4291,0,0,0,0,0,-6.347,-6.3596,-6.3567,-6.3588,-6.3685,-6.3775,-6.3787,-6.3762,-6.3699,-6.3758,-6.3759,-6.3707,-6.3885,-6.3817,-6.3837,-6.3922,-6.4099,-6.4113,-6.4125,-6.4237,-6.4266,-6.429,0,0,0,0,0,0,-6.3579,-6.3599,-6.3567,-6.3706,-6.374,-6.3759,-6.3832,-6.3793,-6.3844,-6.3831,-6.3795,-6.3802,-6.3922,-6.3933,-6.3858,-6.4071,-6.3981,-6.3999,-6.406,-6.4087,-6.4108,-6.4103,-6.3758,0,0,0,0,0,-6.362,-6.3694,-6.3706,-6.3827,-6.3846,-6.3837,-6.3875,-6.3852,-6.3885,-6.3898,-6.3908,-6.3941,-6.4003,-6.4046,-6.4104,-6.4248,-6.4252,-6.4316,-6.4337,-6.4355,-6.4371,-6.4446,-6.4475,-6.4174,-6.4174,-6.4174,0,0,-6.3704,-6.3724,-6.3772,-6.385,-6.3873,-6.3948,-6.3849,-6.3933,-6.3987,-6.391,-6.4018,-6.4026,-6.406,-6.4189,-6.4246,-6.4201,-6.4455,-6.4372,-6.4386,-6.4392,-6.4463,-6.4491,-6.4516,-6.4183,-6.4181,-6.418,0,0,-6.3896,-6.3919,-6.4022,-6.4048,-6.4085,-6.4078,-6.4103,-6.4128,-6.4131,-6.4239,-6.4182,-6.4245,-6.4355,-6.4381,-6.4408,-6.4609,-6.4562,-6.4628,-6.4742,-6.4816,-6.484,-6.4861,-6.4931,-6.4957,-6.4644,-6.4644,-6.4644,0,-6.3995,-6.4108,-6.4079,-6.4167,-6.4202,-6.4137,-6.424,-6.4266,-6.432,-6.4345,-6.4294,-6.443,-6.4447,-6.4581,-6.463,-6.4655,-6.468,-6.4625,-6.4839,-6.486,-6.4878,-6.4945,-6.4972,-6.4652,-6.4651,-6.465,-6.4649,0,-6.4227,-6.4306,-6.4384,-6.444,-6.4483,-6.4579,-6.4563,-6.461,-6.4583,-6.458,-6.4689,-6.4709,-6.4769,-6.4799,-6.4773,-6.4929,-6.49,-6.4845,-6.4754,-6.4916,-6.4978,-6.5003,-6.4663,-6.466,-6.4658,-6.4656,0,0,-6.449,-6.4529,-6.4558,-6.4582,-6.4619,-6.4678,-6.4769,-6.4829,-6.487,-6.4909,-6.4983,-6.5077,-6.5026,-6.5057,-6.5033,-6.5099,-6.5255,-6.5035,-6.5035,-6.5075,-6.5426,-6.5467,-6.5498,-6.5224,-6.5229,-6.5233,-6.5423,0,-6.4681,-6.4841,-6.4818,-6.4971,-6.5042,-6.4981,-6.506,-6.509,-6.509,-6.5148,-6.5147,-6.5214,-6.5142,-6.5161,-6.5223,-6.5223,-6.5325,-6.5209,-6.5291,-6.5295,-6.5285,-6.553,-6.5574,-6.5753,-6.5447,-6.5451,-6.5454,0,-6.4926,-6.4976,-6.5137,-6.5161,-6.519,-6.5262,-6.5315,-6.5372,-6.5404,-6.5399,-6.5434,-6.5398,-6.5486,-6.5395,-6.5515,-6.5437,-6.5468,-6.5474,-6.548,-6.5486,-6.5384,-6.5543,-6.5809,-6.5836,-6.5493,-6.5489,-6.5487,0,-6.5101,-6.5208,-6.5318,-6.534,-6.5371,-6.5423,-6.5438,-6.5464,-6.5502,-6.5548,-6.5571,-6.5626,-6.5656,-6.5698,-6.5677,-6.5612,-6.5801,-6.5708,-6.5798,-6.5799,-6.584,-6.5838,-6.6116,-6.5862,-6.5862,-6.5861,-6.5861,0,-6.5317,-6.5418,-6.5397,-6.5464,-6.5574,-6.5545,-6.5654,-6.5661,-6.5685,-6.5752,-6.5701,-6.5764,-6.5733,-6.5792,-6.5776,-6.5878,-6.5892,-6.5889,-6.5883,-6.5893,-6.5894,-6.5913,-6.59,-6.5868,-6.5867,-6.5865,-6.5864,0,-6.5531,-6.5522,-6.5637,-6.5658,-6.5665,-6.5745,-6.5761,-6.5823,-6.5819,-6.5903,-6.5921,-6.5914,-6.5982,-6.5965,-6.6038,-6.6027,-6.6155,-6.6134,-6.6145,-6.614,-6.6231,-6.6223,-6.6531,-6.6569,-6.6292,-6.6294,-6.6296,0,-6.567,-6.5746,-6.5775,-6.5816,-6.5836,-6.5903,-6.5942,-6.5915,-6.5957,-6.5998,-6.6055,-6.6118,-6.6168,-6.6278,-6.6278,-6.6334,-6.6313,-6.6417,-6.6321,-6.6329,-6.6314,-6.631,-6.6317,-6.6437,-6.644,-6.6442,-6.6444,0,-6.5916,-6.5907,-6.5966,-6.6023,-6.607,-6.6113,-6.6151,-6.6188,-6.6164,-6.6213,-6.6282,-6.6321,-6.6396,-6.6459,-6.651,-6.6523,-6.648,-6.6475,-6.6498,-6.6509,-6.6513,-6.6512,-6.6197,-6.6468,-6.6465,-6.6464,-6.6462,-6.6462,-6.6096,-6.616,-6.6191,-6.6257,-6.6283,-6.632,-6.6379,-6.6382,-6.6441,-6.6501,-6.6481,-6.656,-6.6588,-6.6652,-6.6671,-6.6731,-6.6691,-6.6726,-6.6735,-6.6744,-6.6755,-6.6504,-6.674,-6.6739,-6.6739,-6.6738,-6.6738,0,-6.6339,-6.6356,-6.6417,-6.6472,-6.6524,-6.6481,-6.652,-6.6565,-6.6636,-6.6667,-6.6717,-6.6796,-6.6856,-6.6861,-6.6918,-6.6965,-6.6946,-6.698,-6.6976,-6.698,-6.6787,-6.6761,-6.6994,-6.6994,-6.6994,-6.6994,-6.6994,-6.6994,-6.6472,-6.6578,-6.6573,-6.6691,-6.6706,-6.6785,-6.6811,-6.6843,-6.6867,-6.6959,-6.701,-6.7013,-6.7032,-6.709,-6.7143,-6.7142,-6.7165,-6.7207,-6.7199,-6.7019,-6.6994,-6.6969,-6.6944,-6.7212,-6.7213,-6.7387,-6.7388,-6.7389]}]]